[[{"header":{"parameterUnit":"m.s-1","parameterCategory":1,"la1":30.2991,"la2":30.254,"lo1":-89.0895,"lo2":-89.0444,"dy":0.0017,"dx":0.0017,"nx":28,"ny":28,"refTime":"2023-10-30T09:00:00:Z","depth":0,"parameterNumber":2,"parameterNumberName":"U-component_of_WINDS"},"data":[0,0,0,0,0,0,0,0,0,0,0,0,0,0,0,0,0,0,0,0,0,0,0,0,0,0,0,0,0,0,0,0,0,0,0,0,0,0,0,0,0,0,0,0,0,0,0,0,0,0,0,0,0,0,0,0,0,0,1.2077,1.2076,0,1.2017,1.2017,1.2016,1.1983,1.1983,1.1982,1.1982,1.192,1.1919,1.1917,0,0,0,0,0,0,0,0,0,0,0,0,0,1.2161,1.2159,1.2077,1.2076,1.2075,1.2017,1.2017,1.2016,1.1983,1.1983,1.1982,1.1982,1.1921,1.1919,1.1917,0,0,0,0,0,0,0,0,0,0,0,0,0,1.2115,1.2159,1.2077,1.2052,1.2049,1.2018,1.2017,1.2016,1.1983,1.1983,1.1982,1.1982,1.1921,1.1919,1.1917,1.1905,0,0,1.191,1.1909,0,0,0,0,0,0,0,0,1.2118,1.2112,1.2056,1.2053,1.205,1.2007,1.2023,1.1979,1.1983,1.2008,1.1982,1.1982,1.1949,1.1945,1.1934,1.1902,1.19,1.1909,1.1908,1.1907,1.1906,0,0,0,0,0,0,0,1.2121,1.2114,1.2053,1.2055,1.2052,1.2043,1.2037,1.2015,1.198,1.2006,1.2003,1.1997,1.1947,1.1936,1.1932,1.1899,1.1909,1.1907,1.1906,1.1905,1.1856,1.1856,0,0,0,0,0,0,1.2128,1.2117,1.2055,1.2051,1.2084,1.2042,1.2034,1.2021,1.198,1.1974,1.1997,1.1995,1.194,1.1935,1.193,1.1914,1.1907,1.1905,1.1903,1.1856,1.1856,1.1856,0,0,0,0,0,0,1.213,1.2123,1.2057,1.2084,1.2075,1.2041,1.2026,1.202,1.2009,1.1973,1.1967,1.1991,1.194,1.1933,1.1912,1.1911,1.1904,1.1902,1.1856,1.1856,1.1856,1.1882,0,0,0,0,0,0,1.2133,1.2124,1.2119,1.2084,1.2073,1.2041,1.2026,1.2019,1.2005,1.2002,1.1967,1.1961,1.1939,1.1916,1.191,1.1908,1.19,1.1856,1.1856,1.1856,1.1881,1.1883,1.1885,0,0,0,0,0,1.2136,1.2128,1.2119,1.2112,1.2067,1.2041,1.2035,1.201,1.2005,1.2,1.1978,1.1962,1.1913,1.1914,1.1907,1.1904,1.1855,1.1856,1.1856,1.188,1.1883,1.1885,0,0,0,0,0,0,1.2163,1.2123,1.2112,1.2093,1.2071,1.2035,1.2028,1.2014,1.1992,1.199,1.1961,1.1953,1.1935,1.1917,1.1919,1.1891,1.1882,1.1881,1.1903,1.1905,1.1907,1.1911,1.1898,0,0,0,0,0,1.2168,1.215,1.2116,1.2102,1.2092,1.2062,1.205,1.2033,1.2008,1.1998,1.1974,1.1951,1.193,1.1917,1.1896,1.1879,1.1871,1.1874,1.1876,1.1877,1.1876,1.1867,1.1868,1.1857,1.1857,1.1857,0,0,1.2175,1.2151,1.2142,1.2107,1.2088,1.207,1.2054,1.2036,1.2022,1.1995,1.1974,1.1956,1.1928,1.1909,1.1899,1.1894,1.1878,1.1878,1.1879,1.1877,1.1867,1.1868,1.1869,1.1857,1.1857,1.1857,0,0,1.2181,1.2161,1.2148,1.2129,1.21,1.2081,1.2078,1.2045,1.2032,1.201,1.199,1.1974,1.1938,1.1919,1.1905,1.1905,1.1889,1.1899,1.1908,1.1899,1.19,1.19,1.19,1.19,1.1898,1.1898,1.1898,0,1.2194,1.2167,1.2142,1.2126,1.2111,1.2087,1.2074,1.2057,1.2022,1.2013,1.2007,1.1963,1.1942,1.1919,1.1919,1.1908,1.1904,1.1902,1.1902,1.1902,1.1902,1.1901,1.1902,1.1899,1.1899,1.1899,1.1899,0,1.2185,1.2166,1.2159,1.2127,1.2112,1.2097,1.207,1.2058,1.2043,1.2025,1.2003,1.1978,1.1951,1.1945,1.193,1.192,1.1917,1.1907,1.1897,1.1905,1.1904,1.1903,1.1901,1.1901,1.19,1.19,0,0,1.2204,1.216,1.2158,1.2144,1.2111,1.2096,1.2081,1.2055,1.2045,1.2023,1.2009,1.1981,1.1971,1.1955,1.1938,1.193,1.1932,1.1921,1.192,1.1924,1.1919,1.1927,1.1927,1.1922,1.1922,1.1922,1.1922,0,1.2204,1.2175,1.2153,1.2132,1.2115,1.2093,1.2079,1.2058,1.204,1.2023,1.2004,1.1984,1.1974,1.1964,1.1955,1.1934,1.1931,1.1934,1.1909,1.1908,1.1916,1.1926,1.1933,1.1934,1.1921,1.1921,1.1921,0,1.22,1.2179,1.2157,1.2127,1.2119,1.2107,1.2083,1.2067,1.2042,1.203,1.2013,1.1996,1.1978,1.1971,1.1947,1.1949,1.1938,1.1926,1.1926,1.1922,1.1914,1.1922,1.1933,1.1933,1.192,1.192,1.192,0,1.2216,1.2183,1.2165,1.2154,1.2118,1.211,1.2095,1.2071,1.2057,1.2036,1.2027,1.2004,1.1992,1.1974,1.1952,1.1949,1.193,1.1921,1.1919,1.1919,1.1915,1.1915,1.1924,1.1909,1.1909,1.1909,1.1909,0,1.2218,1.2205,1.2172,1.2161,1.2146,1.2122,1.2107,1.209,1.2069,1.2054,1.2034,1.2021,1.1992,1.1975,1.1957,1.194,1.1934,1.1924,1.1919,1.1925,1.1926,1.1917,1.1916,1.1909,1.1909,1.1909,1.1909,0,1.2233,1.2211,1.219,1.2159,1.215,1.2141,1.2114,1.2102,1.2085,1.2066,1.2061,1.2033,1.2012,1.1988,1.1959,1.1947,1.1931,1.1925,1.1939,1.1937,1.1936,1.1936,1.1938,1.1937,1.1924,1.1924,1.1924,0,1.2236,1.2225,1.2193,1.2182,1.2168,1.2151,1.2137,1.2113,1.21,1.2072,1.2064,1.2042,1.2023,1.1991,1.1968,1.1946,1.1939,1.1941,1.1935,1.1942,1.1938,1.1939,1.1938,1.1942,1.1942,1.1943,1.1943,0,1.2242,1.2232,1.2213,1.2192,1.2176,1.2158,1.2138,1.213,1.2102,1.2089,1.2068,1.2053,1.2025,1.2003,1.1979,1.1963,1.1948,1.1945,1.1943,1.1949,1.1958,1.1953,1.1943,1.1945,1.1945,1.1944,1.1944,1.1944,1.2251,1.2241,1.2217,1.2197,1.218,1.2163,1.2151,1.2132,1.2114,1.2089,1.2076,1.2056,1.2032,1.1998,1.1983,1.1967,1.1961,1.1959,1.1958,1.1958,1.196,1.1962,1.1962,1.1962,1.1962,1.1962,1.1962,0,1.2256,1.224,1.2222,1.2196,1.2181,1.2169,1.2148,1.2135,1.2118,1.2097,1.208,1.2056,1.2035,1.2011,1.1989,1.198,1.1973,1.1975,1.1975,1.1972,1.1966,1.1969,1.1982,1.1982,1.1982,1.1982,1.1982,1.1982,1.2257,1.2239,1.2226,1.22,1.2184,1.2164,1.2153,1.2137,1.212,1.2095,1.2078,1.2063,1.2041,1.2017,1.1998,1.1992,1.1984,1.1988,1.198,1.1974,1.1972,1.1971,1.1974,1.1987,1.1987,1.1987,1.1987,1.1987]},{"header":{"parameterUnit":"m.s-1","parameterCategory":1,"la1":30.2991,"la2":30.254,"lo1":-89.0895,"lo2":-89.0444,"dy":0.0017,"dx":0.0017,"nx":28,"ny":28,"refTime":"2023-10-30T09:00:00:Z","depth":0,"parameterNumber":3,"parameterNumberName":"V-component_of_WINDS"},"data":[0,0,0,0,0,0,0,0,0,0,0,0,0,0,0,0,0,0,0,0,0,0,0,0,0,0,0,0,0,0,0,0,0,0,0,0,0,0,0,0,0,0,0,0,0,0,0,0,0,0,0,0,0,0,0,0,0,0,-8.4324,-8.4326,0,-8.4458,-8.446,-8.4461,-8.44,-8.4396,-8.4393,-8.439,-8.4518,-8.4525,-8.4531,0,0,0,0,0,0,0,0,0,0,0,0,0,-8.4008,-8.4014,-8.4324,-8.4326,-8.4328,-8.4458,-8.446,-8.4462,-8.44,-8.4396,-8.4392,-8.4388,-8.4516,-8.4524,-8.4532,0,0,0,0,0,0,0,0,0,0,0,0,0,-8.4144,-8.4016,-8.4324,-8.4313,-8.4313,-8.4458,-8.446,-8.4462,-8.4401,-8.4396,-8.4391,-8.4386,-8.4514,-8.4523,-8.4533,-8.4693,0,0,-8.4563,-8.4567,0,0,0,0,0,0,0,0,-8.4136,-8.4156,-8.4313,-8.4314,-8.4315,-8.4407,-8.4396,-8.4539,-8.4402,-8.4367,-8.439,-8.4384,-8.4485,-8.4497,-8.4533,-8.4699,-8.4705,-8.4564,-8.4569,-8.4574,-8.4576,0,0,0,0,0,0,0,-8.4127,-8.4149,-8.4377,-8.4315,-8.4316,-8.4299,-8.4313,-8.4423,-8.4452,-8.437,-8.4366,-8.4383,-8.4484,-8.4523,-8.4535,-8.4707,-8.4563,-8.4572,-8.4578,-8.4582,-8.5014,-8.5019,0,0,0,0,0,0,-8.4119,-8.4142,-8.4373,-8.4381,-8.4212,-8.4309,-8.4324,-8.4382,-8.4451,-8.4457,-8.4387,-8.438,-8.4509,-8.4524,-8.4539,-8.4733,-8.4574,-8.4583,-8.4588,-8.5009,-8.5015,-8.5021,0,0,0,0,0,0,-8.4112,-8.414,-8.4367,-8.4261,-8.4288,-8.432,-8.4385,-8.4388,-8.4427,-8.4464,-8.4468,-8.4422,-8.4506,-8.4526,-8.4657,-8.4737,-8.4587,-8.4596,-8.5002,-8.5011,-8.5018,-8.5122,0,0,0,0,0,0,-8.4104,-8.4138,-8.4201,-8.4263,-8.4294,-8.4485,-8.439,-8.4394,-8.4445,-8.4436,-8.4498,-8.4503,-8.4503,-8.4642,-8.4666,-8.4748,-8.4604,-8.4995,-8.5006,-8.5016,-8.5112,-8.5133,-8.5151,0,0,0,0,0,-8.4093,-8.4222,-8.4204,-8.4232,-8.4374,-8.4489,-8.4507,-8.4507,-8.4452,-8.4514,-8.4539,-8.4501,-8.4725,-8.4656,-8.4683,-8.4768,-8.499,-8.5003,-8.5015,-8.5103,-8.5129,-8.5151,0,0,0,0,0,0,-8.4165,-8.423,-8.4211,-8.4365,-8.4423,-8.4479,-8.4557,-8.4534,-8.4606,-8.4595,-8.4589,-8.4604,-8.474,-8.4767,-8.469,-8.4928,-8.4848,-8.4867,-8.4906,-8.4931,-8.495,-8.4941,-8.4612,0,0,0,0,0,-8.42,-8.4291,-8.4341,-8.4472,-8.4503,-8.4526,-8.4576,-8.4571,-8.4629,-8.4653,-8.4686,-8.4742,-8.4825,-8.4879,-8.4957,-8.5115,-8.5128,-8.5187,-8.5207,-8.5223,-8.5239,-8.5326,-8.5353,-8.5063,-8.5063,-8.5062,0,0,-8.427,-8.4317,-8.4374,-8.4488,-8.4532,-8.4625,-8.4546,-8.4647,-8.4715,-8.4667,-8.4794,-8.4821,-8.4883,-8.5029,-8.5095,-8.5055,-8.5323,-8.5239,-8.5252,-8.5259,-8.5342,-8.5369,-8.5394,-8.5071,-8.507,-8.5068,0,0,-8.4447,-8.4492,-8.4607,-8.4654,-8.4724,-8.4739,-8.4767,-8.4828,-8.4845,-8.4974,-8.494,-8.502,-8.5162,-8.5209,-8.5251,-8.545,-8.5418,-8.5475,-8.5578,-8.5663,-8.5686,-8.5706,-8.5778,-8.5804,-8.549,-8.5491,-8.5491,0,-8.4525,-8.4667,-8.4668,-8.4774,-8.4825,-8.479,-8.4906,-8.495,-8.504,-8.5076,-8.5031,-8.5212,-8.525,-8.5408,-8.5457,-8.5492,-8.5523,-8.5467,-8.5683,-8.5703,-8.5722,-8.579,-8.5817,-8.5497,-8.5497,-8.5496,-8.5495,0,-8.476,-8.4859,-8.4943,-8.5036,-8.5097,-8.5206,-8.5223,-8.5284,-8.5275,-8.5294,-8.5426,-8.5472,-8.556,-8.5597,-8.5587,-8.5754,-8.5727,-8.5684,-8.5603,-8.5757,-8.5821,-8.5847,-8.5507,-8.5504,-8.5502,-8.5501,0,0,-8.4984,-8.508,-8.5111,-8.5154,-8.5229,-8.5304,-8.5413,-8.5503,-8.5555,-8.5619,-8.5709,-8.5833,-8.5794,-8.5842,-8.5837,-8.5912,-8.6068,-8.5859,-8.586,-8.5896,-8.6255,-8.6288,-8.6318,-8.6048,-8.6053,-8.6057,-8.625,0,-8.5167,-8.5361,-8.5367,-8.5543,-8.5634,-8.5604,-8.5698,-8.5754,-8.5776,-8.5855,-8.5876,-8.5965,-8.5906,-8.5936,-8.6008,-8.6034,-8.614,-8.602,-8.613,-8.6134,-8.6116,-8.6352,-8.6386,-8.6566,-8.6275,-8.6279,-8.6282,0,-8.5406,-8.5483,-8.567,-8.5736,-8.5774,-8.5859,-8.5943,-8.602,-8.6082,-8.6092,-8.6149,-8.6134,-8.6243,-8.616,-8.631,-8.6229,-8.6274,-8.6294,-8.6301,-8.6311,-8.6218,-8.6368,-8.6623,-8.6651,-8.6321,-8.6318,-8.6315,0,-8.5552,-8.5701,-8.5833,-8.5871,-8.595,-8.6011,-8.6046,-8.6105,-8.6159,-8.6232,-8.6267,-8.635,-8.6395,-8.6459,-8.6467,-8.6406,-8.6619,-8.6535,-8.6629,-8.6629,-8.6675,-8.6672,-8.6941,-8.6704,-8.6704,-8.6703,-8.6703,0,-8.5756,-8.5872,-8.5901,-8.5981,-8.611,-8.6116,-8.6242,-8.6272,-8.6325,-8.641,-8.6387,-8.6466,-8.6472,-8.6553,-8.6559,-8.6684,-8.6704,-8.6714,-8.6715,-8.6717,-8.6716,-8.6746,-8.6734,-8.671,-8.6709,-8.6707,-8.6706,0,-8.594,-8.5965,-8.6106,-8.6172,-8.6191,-8.6283,-8.6338,-8.6415,-8.6435,-8.6543,-8.6569,-8.66,-8.6695,-8.671,-8.682,-8.6824,-8.6973,-8.696,-8.6953,-8.6952,-8.7045,-8.7036,-8.7343,-8.7384,-8.712,-8.7123,-8.7125,0,-8.6069,-8.6158,-8.6235,-8.6293,-8.6333,-8.6424,-8.6481,-8.649,-8.655,-8.663,-8.6697,-8.6791,-8.6866,-8.7019,-8.705,-8.7135,-8.7123,-8.7226,-8.7136,-8.7136,-8.7126,-8.7121,-8.713,-8.7242,-8.7245,-8.7248,-8.7249,0,-8.6296,-8.6304,-8.6389,-8.648,-8.6549,-8.662,-8.6686,-8.6733,-8.6751,-8.6819,-8.6918,-8.6977,-8.7092,-8.7185,-8.727,-8.7303,-8.728,-8.7278,-8.7304,-8.7307,-8.73,-8.7306,-8.7001,-8.727,-8.7268,-8.7267,-8.7266,-8.7265,-8.6456,-8.6535,-8.6603,-8.6699,-8.6751,-8.6814,-8.6891,-8.6923,-8.7007,-8.7104,-8.7103,-8.7212,-8.7274,-8.7386,-8.7426,-8.751,-8.7476,-8.7514,-8.7523,-8.7533,-8.7542,-8.7288,-8.7525,-8.7524,-8.7523,-8.7523,-8.7523,0,-8.6682,-8.6726,-8.6814,-8.691,-8.6986,-8.6961,-8.7034,-8.7098,-8.7196,-8.7257,-8.7333,-8.7448,-8.7539,-8.7578,-8.7667,-8.7727,-8.7718,-8.775,-8.7745,-8.7754,-8.7567,-8.7536,-8.7756,-8.7756,-8.7756,-8.7755,-8.7755,-8.7755,-8.6809,-8.6942,-8.6959,-8.7117,-8.7158,-8.7268,-8.7312,-8.737,-8.742,-8.755,-8.7628,-8.7654,-8.7707,-8.78,-8.7882,-8.7891,-8.7925,-8.7962,-8.7966,-8.779,-8.7767,-8.7744,-8.7715,-8.7969,-8.7969,-8.8146,-8.8148,-8.8149]}]]